www.pogodaiklimat.ru

Погода и климат >> Архив погоды >> Вануату >> Сола


ПОГОДА в Соле

  • Прогноз погоды в Соле
  • Монитор погоды в Соле

АРХИВ ПОГОДЫ в Соле

Время (UTC), дата Ветер
(напр.,м/с)
 
Видим.   Явления Облачность Т
(С)
Тd
(С)
f
(%)
Тe
(С)
Тes
(С)
Комфортность P
(гПа)
Po
(гПа)
Тmin
(С)
Tmax
(С)
R
(мм)
R24
(мм)
S
(см)
15 12.06 В 5 20 км 5/5 600 м
[Cu hum]
+26.5 +21.3 73 +34 +34 очень
душно
1012.1 1010.0
18 12.06 ЮВ 5 20 км 5/5 600 м
[Cu hum]
+26.5 +21.3 73 +34 +34 очень
душно
1012.1 1010.0
21 12.06 ЮВ 3 50 км {метель} 9/9 600 м
[Cu Sc]
+27.0 +21.0 70 +34 +34 очень
душно
1013.6 1011.5
00 13.06 В 3 20 км {метель} 8/8 900 м
[Cu med, cong]
+28.0 +21.3 67 +35 +38 очень
душно
1012.7 1010.6 +26.0
03 13.06 ЮВ 5 50 км 6/6 900 м
[Cu hum]
+29.0 +20.8 61 +36 +38 очень
душно
1010.8 1008.7
06 13.06 В 5 20 км 8/5 600 м
[Cu hum Ac As]
+27.0 +23.4 81 +37 +37 очень
душно
1011.1 1009.0
09 13.06 ЮВ 3 50 км 8/8 900 м
[Cu med, cong]
+26.5 +21.3 73 +34 +34 очень
душно
1012.7 1010.6
12 13.06 В 3 50 км 8/8 600 м
[Cu med, cong]
+26.5 +20.5 70 +33 +33 очень
душно
1013.1 1011.0
15 13.06 штиль 0 50 км 5/5 600 м
[Cu med, cong]
+26.0 +20.7 73 +33 +33 очень
душно
1012.2 1010.1
18 13.06 В 3 50 км 5/5 600 м
[Cu hum]
+25.5 +20.0 72 +31 +31 очень
душно
1011.8 1009.7
21 13.06 ЮВ 5 20 км 6/6 600 м
[Cu med, cong]
+27.0 +21.8 73 +35 +35 очень
душно
1013.3 1011.2
00 14.06 ЮВ 5 20 км 8/8 600 м
[Cu med, cong]
+27.0 +23.4 81 +37 +38 очень
душно
1012.9 1010.8 +24.0
03 14.06 В 5 20 км {ливн. осадки} 6/6 600 м
[Cu med, cong]
+28.5 +21.9 67 +37 +39 очень
душно
1010.9 1008.8
06 14.06 ЮВ 5 20 км {ливн. осадки} 9/9 600 м
[Cu med, cong]
+27.0 +21.0 70 +34 +34 очень
душно
1010.6 1008.5
09 14.06 ЮВ 13 50 км 8/5 600 м
[Cu hum Ac As]
+27.0 +21.0 70 +34 +34 очень
душно
1012.6 1010.5
15 14.06 ЮВ 4 20 км 5/5 600 м
[Cu hum]
+26.1 +20.7 72 +33 +33 очень
душно
1015.2 1013.1
18 14.06 В 5 20 км 5/5 600 м
[Cu hum]
+26.0 +20.9 74 +33 +33 очень
душно
1011.2 1009.1
21 14.06 ЮВ 2 50 км 8/8 750 м
[Cu hum]
+27.0 +21.8 73 +35 +35 очень
душно
1013.4 1011.3
00 15.06 ЮВ 3 50 км 5/5 900 м
[Cu hum]
+29.0 +22.0 66 +37 +43 очень
душно
1013.2 1011.1 +25.1
03 15.06 ЮВ 3 50 км 6/6 900 м
[Cu med, cong]
+27.6 +22.6 74 +36 +39 очень
душно
1011.0 1008.9
06 15.06 ЮВ 3 50 км 6/6 900 м
[Cu med, cong]
+27.0 +21.2 71 +34 +34 очень
душно
1011.4 1009.3
09 15.06 ЮВ 3 20 км 4/4 600 м
[Cu hum]
+26.6 +22.5 78 +35 +35 очень
душно
1013.1 1011.0
21 15.06 В 3 20 км 10/10 600 м
[Cu Sc]
+25.6 +21.9 80 +33 +33 очень
душно
1014.3 1012.2
00 16.06 В 2 50 км {ливн. осадки} 9/6 600 м
[Cu med, cong As trans]
+27.6 +22.2 72 +36 +39 очень
душно
1013.7 1011.6 +24.0 2
03 16.06 В 3 50 км {ливн. осадки} 9/6 600 м
[Cu med, cong As trans]
+27.5 +22.4 74 +36 +38 очень
душно
1011.5 1009.4
06 16.06 ЮВ 3 20 км 10/6 600 м
[Cu med, cong As op]
+27.5 +21.6 70 -5 -5 1011.9 1009.6
09 16.06 ЮВ 4 20 км 6/6 600 м
[Cu med, cong Ac As]
+26.5 +22.1 77 +34 +34 очень
душно
1013.3 1011.2
12 16.06 ЮВ 4 20 км 8/8 600 м
[Cu hum]
+27.0 +23.4 81 +37 +37 очень
душно
1013.3 1011.2
15 16.06 В 5 20 км 10/10 600 м
[Cu Sc]
+27.0 +22.6 77 +36 +36 очень
душно
1012.1 1010.0
18 16.06 В 5 20 км 10/10 600 м
[Cu Sc]
+27.0 +22.6 77 +36 +36 очень
душно
1011.4 1009.3
21 16.06 В 5 20 км 10/10 600 м
[Cu Sc]
+27.2 +23.3 79 +37 +37 очень
душно
1012.7 1010.6
00 17.06 В 5 20 км 10/10 600 м
[Cu Sc]
+27.5 +23.9 81 +38 +38 очень
душно
1012.6 1010.5 +25.0
03 17.06 В 6 20 км 10/10 600 м
[Cu Sc]
+27.6 +24.0 81 +38 +38 очень
душно
1010.6 1008.5
06 17.06 ЮВ 5 20 км {ливн. осадки} 10/10 540 м
[Cu Sc]
+27.0 +24.1 84 +37 +37 очень
душно
1010.7 1008.6 1
09 17.06 штиль 0 20 км {ливн. осадки} 10/10 540 м
[Cu Sc]
+26.4 +24.7 90 +37 +37 очень
душно
1012.0 1009.9
15 17.06 штиль 0 50 км {ливн. осадки} 9/5 600 м
[Cu hum Ac As]
+23.9 +21.5 86 +30 +30 очень
душно
1011.3 1009.2
18 17.06 ЮВ 5 20 км 9/5 600 м
[Cu hum Ac As]
+27.0 +24.1 84 +37 +37 очень
душно
1010.9 1008.8 0.0
21 17.06 В 5 20 км 8/8 600 м
[Cu hum]
+28.0 +23.7 77 +38 +39 очень
душно
1012.1 1010.0
00 18.06 В 5 50 км 9/9 600 м
[Cu med, cong]
+29.5 +25.3 78 +43 +44 опасность
перегрева
1012.0 1009.9 +25.0 2
03 18.06 ЮВ 3 20 км 8/6 600 м
[Cu med, cong As trans]
+29.0 +24.8 78 +41 +44 опасность
перегрева
1010.0 1007.9
06 18.06 ЮВ 3 50 км 8/5 600 м
[Cu hum Ci fib]
+28.0 +24.4 81 +39 +40 очень
душно
1010.3 1008.2
09 18.06 штиль 0 20 км 10/5 600 м
[Cu hum Ac As]
+29.0 +23.4 72 +39 +39 очень
душно
1011.8 1009.7
12 18.06 ЮВ 3 20 км 8/6 600 м
[Cu hum Ac As]
+27.5 +24.7 85 +39 +39 очень
душно
1011.4 1009.3
15 18.06 ЮВ 3 20 км 5/5 600 м
[Cu hum]
+27.0 +24.1 84 +37 +37 очень
душно
1010.6 1008.5
18 18.06 ЮВ 5 20 км 8/8 600 м
[Cu med, cong]
+27.1 +24.1 84 +38 +38 очень
душно
1011.1 1009.0
21 18.06 ЮВ 3 20 км 9/5 600 м
[Cu med, cong Ac As]
+27.0 +24.5 86 +38 +39 очень
душно
1012.4 1010.3
00 19.06 ЮВ 3 50 км 9/5 600 м
[Cu hum As trans]
+29.6 +24.5 74 +42 +45 опасность
перегрева
1012.6 1010.5 +26.6
03 19.06 ЮВ 3 50 км 10/6 600 м
[Cu med, cong As trans]
+29.5 +24.4 74 +41 +43 опасность
перегрева
1010.6 1008.5
06 19.06 Ю 5 20 км 10/6 600 м
[Cu med, cong Ac As]
+27.5 +24.1 82 +38 +38 очень
душно
1010.6 1008.5

 

Местоположение метеостанции Сола (Вануату): широта -13.85 долгота 167.55 высота над уровнем моря 18 м.

В архиве по умолчанию представлена погода в Соле за последнюю неделю. Архивные данные за месяц целиком и за предыдущие месяцы, начиная с января 2011 года, Вы можете получить, выбрав интересующий диапазон дат из раскрывающегося списка и нажав кнопку "Ввод!".


*Определитесь, кто Вы:
робот инопланетянин человек

Внимание! Время в таблицах - всемирное. Для получения местного времени необходимо прибавить поправку, которая равна 11 ч.

Смотрите также архив погоды в соседних городах и на ближайших метеорологических станциях:

Погода на Линуа (Вануату) (117 км)
Погода в Саратамате (Вануату) (159 км)
Погода в Санто-Пекоа (Вануату) (188 км)
Погода в Ламапе (Вануату) (286 км)
Погода на Островах Санта-Круз (Соломоновы Острова) (398 км)
Погода в Порт-Виле (Вануату) (436 км)
Погода на Эроманге (Вануату) (565 км)
Погода в Уайт Грасс (Вануату) (647 км)
Погода на Острове Сюрприз (Новая Каледония) (702 км)
Погода в Анейтьюме (Вануату) (747 км)

Пояснения к столбцам:

Ветер - указаны скорость ветра в м/с - средняя за 10 мин, порывы в срок и между сроками (в фигурных скобках) и направление, откуда дует ветер: С - северный, СВ - северо-восточный, В - восточный, ЮВ - юго-восточный, Ю - южный, ЮЗ - юго-западный, З - западный, СЗ - северо-западный.
Видимость - горизонтальная дальность видимости в метрах или километрах. При видимости от 1 до 10 км при отсутствии осадков обычно наблюдается дымка, при ухудшении видимости до 1 км и менее - туман. В сухую погоду видимость может ухудшаться дымом, пылью или мглою.
Явления - указаны атмосферные явления, наблюдавшиеся в срок или в последний час перед сроком; фигурными скобками обозначены явления, наблюдавшиеся между сроками (за 1-3 часа до срока); квадратными скобками обозначены град или гололедные отложения с указанием их диаметра в мм.
Облачность - указаны через наклонную черту общая и нижняя облачность в баллах и высота нижней границы облаков в метрах; квадратными скобками обозначены формы облаков: Ci - перистые, Cs - перисто-слоистые, Cc - перисто-кучевые, Ac - высококучевые, As - высокослоистые, Sc - слоисто-кучевые, Ns - слоисто-дождевые, Cu - кучевые, Cb - кучево-дождевые. Подробнее классификацию облаков см. в Атласе облаков (PDF).
T - Температура воздуха - температура, измеренная на высоте 2 м над землей.
Td - Температура точки росы - температура, при понижении до которой содержащийся в воздухе водяной пар достигнет насыщения.
f - Относительная влажность воздуха - влажноcть воздуха, измеренная на высоте 2 м над землей.
Te - Эффективная температура - температура, которую ощущает одетый по сезону человек в тени. Характеристика душности погоды. При расчете учитывается влияние влажности воздуха и скорости ветра на теплоощущения человека.
Tes - Эффективная температура на солнце - температура, которую ощущает человек, с поправкой на солнечный нагрев. Характеристика знойности погоды. Зависит от высоты солнца над горизонтом, облачности и скорости ветра. Ночью, в пасмурную погоду, а также при ветре 12 м/с и более поправка равна нулю.
P - Атмосферное давление - приведенное к уровню моря атмосферное давление.
Po - Атмосферное давление - измеренное на уровне метеостанции атмосферное давление.
Tmin - Минимальная температура - минимум температуры воздуха на высоте 2 м над землей.
Tmax - Максимальная температура - максимум температуры воздуха на высоте 2 м над землей.
R - Количество осадков - Количество выпавших осадков за период времени, мм. При наведении курсора мыши на число - период времени, за который выпало указанное количество осадков.
R24 - Количество осадков - Количество выпавших осадков за 24 часа, мм.
S - Снежный покров - Высота снежного покрова, см. При наведении курсора мыши на число - состояние снежного покрова и степень покрытия местности в баллах.